DMSP 5D-2 F13 DEB, 40672

Orbit data source: Space-Track

DMSP 5D-2 F13 DEB, 40672 is space debris in SSO originally from a launch on Fri, 24 Mar 1995 UTC launched from the Air Force Western Test Range (AFWTR). Debris objects in space refer to the collection of defunct objects orbiting the Earth. Examples of debris include non-operational satellites, rocket bodies, and fragments generated from explosions, collisions, or faulty payload assembly.

Loading next visibility...
Identifier
40672, 1995-015FL
Orbit
SSO
Country
Flag of USUS
Related business
Manufacturer
Unknown
Mission
Spacecraft
Bus & Motor
Unknown
Mass
Unknown
Launch date (UTC)
1995-03-24 (31 years ago)
Launch vehicle
Unknown
Launch site
Air Force Western Test Range (AFWTR)
Object type
Payload
Rocket body
Debris
Shape & HBR
Unknown shape, 0.1 m
Radar Cross Section
Small (<0.1 m²)

Expand to show TLE details & history
Last TLE update: 1 month ago

TLE from 1 month ago
0 DMSP 5D-2 F13 DEB
1 40672U 95015FL  25267.19905091  .00378399  00000-0  19389-1 0  9995
2 40672  98.6718 344.4636 0008315 235.1061 124.9387 15.14722333545745
Epoch: 2025-09-24T04:46Z
TLE epoch observation values (Epoch: 2025-09-24T04:46:37.998Z)
Latitude
0.00003°
Longitude
-90.47269°
Altitude
528.155 km
Speed
7.597 km/s
True Right ascension
22h 57m 51s
True Declination
0° 00' 00"
Sunlit
Object was in full shadow at epoch
Visualization orbit readout
Latitude
Unknown
Longitude
Unknown
Altitude
Unknown
Speed
Unknown
Apparent Right ascension
Unknown
Apparent Declination
Unknown
Sunlit
N/A
Visualization observer readout
Local Sidereal Time
04:03:08
Azimuth
Unknown
Elevation
Unknown
Doppler factor
Unknown
Orbital elements
Apogee altitude
524.588 km
Perigee altitude
513.118 km
Semi-major axis
6,896.99 km
Eccentricity
0.00083
Inclination
98.6718°
RAAN
344.4636°
Arg. of periapsis
235.1061°
True anomaly
125.01676°
Mean anomaly
124.9387°
Eccentric anomaly
124.97774°
Mean motion
3.78925 °/min
Orbital period
95.01 mins
BSTAR
0.019389
Loading maneuver chart data...
Computing Atmospheric mass density...

Documentation

Showing up to 5 results
|